CAZ8 EGPB-EGLC

Flight info

Callsign CAZ8
Flight time 1h 20m
Altitude 49000
Route MOCHA DCT BEKET DCT MONAV DCT ADN DCT IPDOR/N0501F350 DCT VAMEB UL612 LISTO
Aircraft C750/M-SBDE3FGHRWXY/S

Departure

Time 2026-04-20 19:11
Airport Sumburgh Airport (EGPB)

Arrival

Time 2026-04-20 20:31
Airport London City Airport (EGLC)
Time Latitude Longitude Altitude Speed Heading
2026-04-20 18:59 59.87802 -1.29169 40 ft 0 kts 144°
2026-04-20 19:05 59.87798 -1.29167 40 ft 1 kts 166°
2026-04-20 19:05 59.87789 -1.29180 40 ft 2 kts 232°
2026-04-20 19:05 59.87786 -1.29221 40 ft 4 kts 303°
2026-04-20 19:06 59.87813 -1.29267 40 ft 7 kts 321°
2026-04-20 19:06 59.87857 -1.29335 40 ft 9 kts 323°
2026-04-20 19:06 59.87906 -1.29413 40 ft 8 kts 310°
2026-04-20 19:06 59.87902 -1.29498 40 ft 6 kts 223°
2026-04-20 19:07 59.87879 -1.29553 40 ft 5 kts 253°
2026-04-20 19:07 59.87896 -1.29621 40 ft 6 kts 322°
2026-04-20 19:07 59.87926 -1.29668 40 ft 5 kts 322°
2026-04-20 19:07 59.87958 -1.29716 40 ft 7 kts 322°
2026-04-20 19:08 59.88010 -1.29796 39 ft 11 kts 322°
2026-04-20 19:08 59.88104 -1.29947 43 ft 6 kts 306°
2026-04-20 19:08 59.88108 -1.30064 42 ft 11 kts 261°
2026-04-20 19:09 59.88098 -1.30249 42 ft 16 kts 264°
2026-04-20 19:09 59.88086 -1.30482 42 ft 17 kts 264°
2026-04-20 19:09 59.88069 -1.30586 42 ft 1 kts 275°
2026-04-20 19:09 59.88078 -1.30584 42 ft 3 kts 30°
2026-04-20 19:10 59.88080 -1.30565 42 ft 0 kts 84°
2026-04-20 19:10 59.88119 -1.29855 44 ft 105 kts 84°
2026-04-20 19:10 59.88205 -1.28233 408 ft 104 kts 85°
2026-04-20 19:11 59.88271 -1.26784 864 ft 110 kts 88°
2026-04-20 19:11 59.88149 -1.25240 1056 ft 129 kts 126°
2026-04-20 19:11 59.87250 -1.24415 1336 ft 162 kts 176°
2026-04-20 19:11 59.86116 -1.24900 1928 ft 177 kts 196°
2026-04-20 19:12 59.85107 -1.26646 2495 ft 197 kts 226°
2026-04-20 19:12 59.84281 -1.28616 3745 ft 180 kts 223°
2026-04-20 19:12 59.83315 -1.30316 4459 ft 189 kts 209°
2026-04-20 19:12 59.82155 -1.31465 5417 ft 184 kts 193°
2026-04-20 19:13 59.80902 -1.31914 6344 ft 183 kts 180°
2026-04-20 19:13 59.79618 -1.32115 7243 ft 187 kts 180°
2026-04-20 19:13 59.78307 -1.32343 8114 ft 191 kts 180°
2026-04-20 19:13 59.76970 -1.32591 9043 ft 195 kts 180°
2026-04-20 19:14 59.75609 -1.32843 9955 ft 198 kts 180°
2026-04-20 19:14 59.74218 -1.33099 10784 ft 203 kts 180°
2026-04-20 19:14 59.72809 -1.33361 11625 ft 203 kts 180°
2026-04-20 19:14 59.71399 -1.33622 12474 ft 204 kts 180°
2026-04-20 19:15 59.69984 -1.33882 13321 ft 205 kts 180°
2026-04-20 19:15 59.68561 -1.34144 14186 ft 206 kts 180°
2026-04-20 19:15 59.67133 -1.34406 14960 ft 207 kts 180°
2026-04-20 19:15 59.65692 -1.34671 15717 ft 209 kts 181°
2026-04-20 19:16 59.64240 -1.34937 16484 ft 210 kts 181°
2026-04-20 19:16 59.62794 -1.35202 17264 ft 212 kts 181°
2026-04-20 19:16 59.61298 -1.35477 18081 ft 214 kts 181°
2026-04-20 19:16 59.58383 -1.36010 19593 ft 218 kts 180°
2026-04-20 19:17 59.55351 -1.36564 21088 ft 220 kts 180°
2026-04-20 19:17 59.52282 -1.37123 22599 ft 223 kts 180°
2026-04-20 19:17 59.49160 -1.37692 24126 ft 227 kts 181°
2026-04-20 19:17 59.45985 -1.38267 25354 ft 233 kts 181°
2026-04-20 19:18 59.42714 -1.38861 26602 ft 239 kts 181°
2026-04-20 19:18 59.39355 -1.39469 27867 ft 246 kts 181°
2026-04-20 19:18 59.35899 -1.40093 29147 ft 253 kts 181°
2026-04-20 19:18 59.32332 -1.40734 30266 ft 267 kts 181°
2026-04-20 19:19 59.28297 -1.41448 30375 ft 314 kts 181°
2026-04-20 19:19 59.23661 -1.42286 30482 ft 355 kts 181°
2026-04-20 19:19 59.18477 -1.43213 30578 ft 392 kts 182°
2026-04-20 19:19 59.12812 -1.44225 30635 ft 425 kts 182°
2026-04-20 19:20 59.06763 -1.45305 31090 ft 443 kts 182°
2026-04-20 19:20 59.00556 -1.46402 31820 ft 454 kts 182°
2026-04-20 19:20 58.94202 -1.47523 32527 ft 464 kts 182°
2026-04-20 19:20 58.87726 -1.48663 33497 ft 469 kts 182°
2026-04-20 19:21 58.81210 -1.49803 34573 ft 471 kts 182°
2026-04-20 19:21 58.74662 -1.50945 35480 ft 474 kts 182°
2026-04-20 19:21 58.68098 -1.52359 36405 ft 477 kts 187°
2026-04-20 19:21 58.61631 -1.55000 37681 ft 472 kts 190°
2026-04-20 19:22 58.55231 -1.57326 39035 ft 465 kts 188°
2026-04-20 19:22 58.48928 -1.59742 40197 ft 458 kts 189°
2026-04-20 19:22 58.42736 -1.62054 41373 ft 451 kts 189°
2026-04-20 19:22 58.32300 -1.67378 43016 ft 449 kts 199°
2026-04-20 19:23 58.20514 -1.74444 45116 ft 438 kts 197°
2026-04-20 19:23 58.09080 -1.81289 47181 ft 421 kts 197°
2026-04-20 19:23 58.03277 -1.84767 47484 ft 428 kts 196°
2026-04-20 19:24 57.97571 -1.88127 47476 ft 440 kts 197°
2026-04-20 19:24 57.91690 -1.91611 47483 ft 452 kts 196°
2026-04-20 19:25 57.85602 -1.95186 47479 ft 464 kts 197°
2026-04-20 19:25 57.79362 -1.98847 47479 ft 475 kts 197°
2026-04-20 19:26 57.72977 -2.02574 47470 ft 486 kts 197°
2026-04-20 19:26 57.66450 -2.06373 47469 ft 497 kts 197°
2026-04-20 19:27 57.60889 -2.09596 47467 ft 502 kts 197°
2026-04-20 19:27 57.54239 -2.13438 47471 ft 505 kts 197°
2026-04-20 19:28 57.47511 -2.17311 47462 ft 507 kts 197°
2026-04-20 19:28 57.40775 -2.21172 47458 ft 507 kts 197°
2026-04-20 19:29 57.34033 -2.25023 47464 ft 507 kts 197°
2026-04-20 19:29 57.27264 -2.28827 47458 ft 510 kts 195°
2026-04-20 19:30 57.20412 -2.32447 47463 ft 513 kts 195°
2026-04-20 19:30 57.13555 -2.36193 47457 ft 515 kts 196°
2026-04-20 19:31 57.06649 -2.39866 47449 ft 518 kts 195°
2026-04-20 19:31 56.99717 -2.43589 47449 ft 520 kts 195°
2026-04-20 19:32 56.92749 -2.47289 47442 ft 522 kts 195°
2026-04-20 19:32 56.85752 -2.51004 47438 ft 524 kts 195°
2026-04-20 19:33 56.78723 -2.54715 47422 ft 527 kts 195°
2026-04-20 19:33 56.71676 -2.58423 47425 ft 528 kts 195°
2026-04-20 19:34 56.64602 -2.62131 47422 ft 530 kts 195°
2026-04-20 19:34 56.57556 -2.65809 47421 ft 531 kts 195°
2026-04-20 19:35 56.50441 -2.69509 47420 ft 532 kts 195°
2026-04-20 19:35 56.43311 -2.73202 47421 ft 534 kts 195°
2026-04-20 19:36 56.36167 -2.76888 47402 ft 534 kts 195°
2026-04-20 19:36 56.29009 -2.80567 47416 ft 535 kts 195°
2026-04-20 19:37 56.21838 -2.84239 47403 ft 536 kts 195°
2026-04-20 19:37 56.14657 -2.87901 47398 ft 536 kts 195°
2026-04-20 19:38 56.07482 -2.91546 47400 ft 536 kts 195°
2026-04-20 19:38 56.00343 -2.95159 47950 ft 524 kts 195°
2026-04-20 19:38 55.96866 -2.96914 48478 ft 515 kts 195°
2026-04-20 19:39 55.93449 -2.98635 48994 ft 505 kts 195°
2026-04-20 19:39 55.90100 -3.00318 49499 ft 496 kts 195°
2026-04-20 19:39 55.86812 -3.01968 49997 ft 486 kts 195°
2026-04-20 19:39 55.83589 -3.03583 50490 ft 477 kts 195°
2026-04-20 19:40 55.80426 -3.05165 50943 ft 468 kts 195°
2026-04-20 19:40 55.77319 -3.06716 51346 ft 460 kts 194°
2026-04-20 19:40 55.74242 -3.08249 51347 ft 461 kts 195°
2026-04-20 19:41 55.68072 -3.11317 51400 ft 461 kts 194°
2026-04-20 19:41 55.61884 -3.14384 51372 ft 462 kts 195°
2026-04-20 19:42 55.55679 -3.17449 51380 ft 463 kts 194°
2026-04-20 19:42 55.49461 -3.20511 51385 ft 464 kts 194°
2026-04-20 19:43 55.43229 -3.23569 51386 ft 466 kts 195°
2026-04-20 19:43 55.36874 -3.25647 51374 ft 465 kts 180°
2026-04-20 19:44 55.30482 -3.24283 51386 ft 463 kts 165°
2026-04-20 19:44 55.24236 -3.21460 51373 ft 465 kts 166°
2026-04-20 19:45 55.17853 -3.19579 51375 ft 466 kts 170°
2026-04-20 19:45 55.11538 -3.17321 51369 ft 466 kts 167°
2026-04-20 19:46 55.05147 -3.15216 51370 ft 468 kts 169°
2026-04-20 19:46 54.98731 -3.13057 51369 ft 472 kts 168°
2026-04-20 19:47 54.92240 -3.10878 51364 ft 478 kts 168°
2026-04-20 19:47 54.85669 -3.08702 51366 ft 483 kts 168°
2026-04-20 19:48 54.79025 -3.06483 51362 ft 489 kts 168°
2026-04-20 19:48 54.72309 -3.04270 51367 ft 494 kts 169°
2026-04-20 19:49 54.65529 -3.02027 51354 ft 498 kts 169°
2026-04-20 19:49 54.58715 -2.99792 51358 ft 499 kts 169°
2026-04-20 19:50 54.51885 -2.97551 51358 ft 499 kts 169°
2026-04-20 19:50 54.45066 -2.95328 51360 ft 499 kts 169°
2026-04-20 19:51 54.35066 -2.92074 51372 ft 498 kts 169°
2026-04-20 19:51 54.21526 -2.87698 51353 ft 498 kts 169°
2026-04-20 19:52 54.07926 -2.83332 51333 ft 497 kts 169°
2026-04-20 19:52 53.94662 -2.77072 51343 ft 496 kts 155°
2026-04-20 19:53 53.81992 -2.67794 51353 ft 496 kts 157°
2026-04-20 19:53 53.69376 -2.58686 51329 ft 492 kts 157°
2026-04-20 19:54 53.56753 -2.49675 51338 ft 494 kts 157°
2026-04-20 19:54 53.44052 -2.40688 51341 ft 496 kts 157°
2026-04-20 19:55 53.23325 -2.26160 51329 ft 499 kts 157°
2026-04-20 19:55 53.11294 -2.16749 51320 ft 501 kts 145°
2026-04-20 19:56 53.06729 -2.10833 51331 ft 501 kts 140°
2026-04-20 19:56 52.95682 -1.97361 51336 ft 502 kts 143°
2026-04-20 19:57 52.90091 -1.90375 51317 ft 504 kts 144°
2026-04-20 19:57 52.84362 -1.83637 51318 ft 506 kts 144°
2026-04-20 19:58 52.78680 -1.76719 51323 ft 508 kts 144°
2026-04-20 19:58 52.75816 -1.73313 50650 ft 524 kts 144°
2026-04-20 19:58 52.72686 -1.70120 49912 ft 533 kts 151°
2026-04-20 19:58 52.69381 -1.67297 49202 ft 537 kts 154°
2026-04-20 19:59 52.66027 -1.64575 48473 ft 537 kts 153°
2026-04-20 19:59 52.62709 -1.61740 47754 ft 537 kts 152°
2026-04-20 19:59 52.59435 -1.58823 47030 ft 532 kts 152°
2026-04-20 19:59 52.56190 -1.56014 46337 ft 522 kts 153°
2026-04-20 20:00 52.52980 -1.53338 45656 ft 513 kts 153°
2026-04-20 20:00 52.49833 -1.50685 45061 ft 503 kts 153°
2026-04-20 20:00 52.46762 -1.48032 44388 ft 496 kts 152°
2026-04-20 20:00 52.43719 -1.45416 43733 ft 493 kts 153°
2026-04-20 20:01 52.40660 -1.42839 43085 ft 497 kts 153°
2026-04-20 20:01 52.37571 -1.40241 42427 ft 502 kts 153°
2026-04-20 20:01 52.34457 -1.37597 41763 ft 506 kts 153°
2026-04-20 20:01 52.31382 -1.34815 41083 ft 506 kts 148°
2026-04-20 20:02 52.28561 -1.31382 40432 ft 507 kts 139°
2026-04-20 20:02 52.26074 -1.27299 39768 ft 509 kts 132°
2026-04-20 20:02 52.23837 -1.22802 39106 ft 511 kts 128°
2026-04-20 20:02 52.21741 -1.18208 38382 ft 512 kts 127°
2026-04-20 20:03 52.19563 -1.13586 37698 ft 516 kts 130°
2026-04-20 20:03 52.17231 -1.09097 37004 ft 522 kts 129°
2026-04-20 20:03 52.15182 -1.04179 36308 ft 528 kts 121°
2026-04-20 20:03 52.13571 -0.98774 35624 ft 533 kts 112°
2026-04-20 20:04 52.12443 -0.93028 34937 ft 534 kts 103°
2026-04-20 20:04 52.11837 -0.87070 34241 ft 535 kts 93°
2026-04-20 20:04 52.11897 -0.81011 33519 ft 535 kts 83°
2026-04-20 20:04 52.12357 -0.74992 32818 ft 537 kts 78°
2026-04-20 20:05 52.12926 -0.68969 32118 ft 540 kts 78°
2026-04-20 20:05 52.13474 -0.61070 31241 ft 546 kts 83°
2026-04-20 20:05 52.13140 -0.37438 28577 ft 549 kts 85°
2026-04-20 20:05 52.13209 -0.14272 26140 ft 547 kts 88°
2026-04-20 20:06 52.13247 -0.06770 25387 ft 515 kts 86°
2026-04-20 20:06 52.13263 0.04148 24224 ft 454 kts 88°
2026-04-20 20:06 52.13204 0.14001 22944 ft 423 kts 88°
2026-04-20 20:06 52.12524 0.23357 21717 ft 409 kts 96°
2026-04-20 20:07 52.11769 0.32423 20914 ft 402 kts 95°
2026-04-20 20:07 52.11033 0.41351 20154 ft 395 kts 96°
2026-04-20 20:07 52.10261 0.50007 19420 ft 388 kts 99°
2026-04-20 20:07 52.09335 0.58544 18688 ft 380 kts 98°
2026-04-20 20:08 52.08407 0.66939 17866 ft 375 kts 99°
2026-04-20 20:08 52.07510 0.74977 17037 ft 341 kts 99°
2026-04-20 20:08 52.06695 0.82249 16216 ft 319 kts 99°
2026-04-20 20:08 52.04931 0.88767 15367 ft 315 kts 118°
2026-04-20 20:09 52.02853 0.94977 14627 ft 312 kts 116°
2026-04-20 20:09 52.00840 1.01183 13891 ft 309 kts 116°
2026-04-20 20:09 51.98816 1.07305 13075 ft 305 kts 116°
2026-04-20 20:09 51.95165 1.18371 12291 ft 295 kts 116°
2026-04-20 20:10 51.93691 1.22828 12299 ft 298 kts 115°
2026-04-20 20:10 51.92713 1.25779 12298 ft 298 kts 116°
2026-04-20 20:10 51.91729 1.28744 12302 ft 298 kts 116°
2026-04-20 20:10 51.90546 1.31521 12158 ft 306 kts 134°
2026-04-20 20:11 51.88720 1.33282 11883 ft 306 kts 155°
2026-04-20 20:11 51.86735 1.34508 11593 ft 304 kts 159°
2026-04-20 20:11 51.84757 1.35682 11252 ft 301 kts 158°
2026-04-20 20:11 51.82811 1.36899 10899 ft 299 kts 157°
2026-04-20 20:12 51.80883 1.38123 10555 ft 294 kts 157°
2026-04-20 20:12 51.79015 1.39286 10213 ft 281 kts 158°
2026-04-20 20:12 51.77226 1.40392 9873 ft 269 kts 157°
2026-04-20 20:13 51.73799 1.42216 9206 ft 260 kts 174°
2026-04-20 20:13 51.72064 1.41764 9166 ft 251 kts 203°
2026-04-20 20:13 51.70703 1.40108 9224 ft 248 kts 232°
2026-04-20 20:13 51.69615 1.37883 9293 ft 254 kts 235°
2026-04-20 20:14 51.68548 1.35650 9291 ft 249 kts 235°
2026-04-20 20:14 51.67486 1.33429 9290 ft 249 kts 234°
2026-04-20 20:14 51.66783 1.31966 9289 ft 251 kts 235°
2026-04-20 20:14 51.62934 1.23960 9279 ft 255 kts 235°
2026-04-20 20:15 51.60865 1.19669 9270 ft 251 kts 234°
2026-04-20 20:15 51.59805 1.17471 9261 ft 247 kts 235°
2026-04-20 20:15 51.58740 1.15263 9273 ft 254 kts 236°
2026-04-20 20:15 51.57666 1.13043 9264 ft 252 kts 236°
2026-04-20 20:16 51.56579 1.10796 9077 ft 255 kts 235°
2026-04-20 20:16 51.52905 1.03217 7741 ft 250 kts 235°
2026-04-20 20:16 51.51835 1.01016 7302 ft 249 kts 234°
2026-04-20 20:16 51.50783 0.98852 6994 ft 244 kts 235°
2026-04-20 20:17 51.49746 0.96720 6675 ft 241 kts 235°
2026-04-20 20:17 51.48718 0.94607 6344 ft 238 kts 235°
2026-04-20 20:17 51.47779 0.92448 5998 ft 235 kts 248°
2026-04-20 20:17 51.47558 0.89949 5851 ft 219 kts 277°
2026-04-20 20:18 51.47655 0.87502 5996 ft 223 kts 278°
2026-04-20 20:18 51.47749 0.84991 6020 ft 227 kts 278°
2026-04-20 20:18 51.47843 0.82458 6021 ft 228 kts 278°
2026-04-20 20:18 51.47939 0.79916 6018 ft 228 kts 278°
2026-04-20 20:19 51.48035 0.77377 6020 ft 228 kts 278°
2026-04-20 20:19 51.48131 0.74842 6016 ft 228 kts 278°
2026-04-20 20:19 51.48226 0.72299 5938 ft 229 kts 278°
2026-04-20 20:19 51.48321 0.69740 5777 ft 230 kts 278°
2026-04-20 20:20 51.48415 0.67181 5591 ft 229 kts 278°
2026-04-20 20:20 51.48508 0.64641 5395 ft 228 kts 278°
2026-04-20 20:20 51.48601 0.62111 5198 ft 227 kts 278°
2026-04-20 20:20 51.48840 0.55507 4675 ft 227 kts 278°
2026-04-20 20:21 51.49096 0.48023 4077 ft 227 kts 275°
2026-04-20 20:21 51.48681 0.45575 3863 ft 231 kts 242°
2026-04-20 20:21 51.47858 0.43396 4004 ft 231 kts 240°
2026-04-20 20:21 51.47020 0.41099 3946 ft 240 kts 241°
2026-04-20 20:22 51.44568 0.34402 3387 ft 238 kts 240°
2026-04-20 20:22 51.43731 0.32127 3170 ft 235 kts 240°
2026-04-20 20:22 51.43100 0.29775 2895 ft 226 kts 263°
2026-04-20 20:22 51.43140 0.27380 2918 ft 205 kts 277°
2026-04-20 20:23 51.43216 0.25165 3002 ft 198 kts 277°
2026-04-20 20:23 51.43286 0.22926 3011 ft 203 kts 276°
2026-04-20 20:23 51.43358 0.20673 3019 ft 203 kts 277°
2026-04-20 20:23 51.43432 0.18425 3016 ft 202 kts 277°
2026-04-20 20:24 51.43508 0.16158 2884 ft 206 kts 276°
2026-04-20 20:24 51.43583 0.13868 2697 ft 205 kts 276°
2026-04-20 20:24 51.43655 0.11608 2514 ft 202 kts 276°
2026-04-20 20:24 51.43727 0.09364 2338 ft 201 kts 277°
2026-04-20 20:25 51.43800 0.07125 2163 ft 202 kts 276°
2026-04-20 20:25 51.43872 0.04883 1996 ft 201 kts 276°
2026-04-20 20:25 51.43939 0.02690 1980 ft 195 kts 276°
2026-04-20 20:25 51.44008 0.00515 1999 ft 196 kts 276°
2026-04-20 20:26 51.44078 -0.01691 1988 ft 201 kts 275°
2026-04-20 20:26 51.44147 -0.03927 1990 ft 201 kts 275°
2026-04-20 20:26 51.44216 -0.06162 2000 ft 201 kts 276°
2026-04-20 20:26 51.44367 -0.08390 1950 ft 201 kts 290°
2026-04-20 20:27 51.45127 -0.10162 1970 ft 190 kts 323°
2026-04-20 20:27 51.46277 -0.11066 1984 ft 182 kts 351°
2026-04-20 20:27 51.47518 -0.11526 2007 ft 185 kts 352°
2026-04-20 20:27 51.48762 -0.11552 1966 ft 176 kts 18°
2026-04-20 20:28 51.49818 -0.10650 1985 ft 172 kts 43°
2026-04-20 20:28 51.50637 -0.09261 2006 ft 171 kts 46°
2026-04-20 20:28 51.51088 -0.07581 1931 ft 163 kts 89°
2026-04-20 20:28 51.50926 -0.05921 1975 ft 136 kts 92°
2026-04-20 20:29 51.50859 -0.04578 1967 ft 109 kts 90°
2026-04-20 20:29 51.50810 -0.03425 1888 ft 100 kts 89°
2026-04-20 20:29 51.50772 -0.02269 1561 ft 104 kts 88°
2026-04-20 20:29 51.50736 -0.01124 1333 ft 102 kts 89°
2026-04-20 20:30 51.50700 0.00004 1062 ft 101 kts 90°
2026-04-20 20:30 51.50664 0.01109 789 ft 101 kts 90°
2026-04-20 20:30 51.50627 0.02243 543 ft 102 kts 90°
2026-04-20 20:30 51.50593 0.03381 280 ft 101 kts 90°
2026-04-20 20:31 51.50559 0.04504 65 ft 98 kts 89°
2026-04-20 20:31 51.50530 0.05478 21 ft 66 kts 94°
2026-04-20 20:31 51.50513 0.05935 18 ft 22 kts 90°
2026-04-20 20:31 51.50487 0.06054 18 ft 7 kts 186°
2026-04-20 20:32 51.50442 0.06011 18 ft 7 kts 219°
2026-04-20 20:32 51.50441 0.05967 18 ft 6 kts 278°
2026-04-20 20:32 51.50447 0.05881 20 ft 9 kts 275°
2026-04-20 20:32 51.50451 0.05768 20 ft 12 kts 272°
2026-04-20 20:33 51.50444 0.05621 19 ft 16 kts 270°
2026-04-20 20:33 51.50446 0.05447 20 ft 15 kts 272°
2026-04-20 20:33 51.50449 0.05309 24 ft 11 kts 272°
2026-04-20 20:33 51.50451 0.05201 25 ft 9 kts 271°
2026-04-20 20:34 51.50453 0.05090 24 ft 11 kts 271°
2026-04-20 20:34 51.50463 0.04981 24 ft 9 kts 273°
2026-04-20 20:34 51.50467 0.04891 26 ft 7 kts 273°
2026-04-20 20:34 51.50470 0.04807 27 ft 9 kts 274°
2026-04-20 20:35 51.50474 0.04687 26 ft 13 kts 270°
2026-04-20 20:35 51.50477 0.04511 22 ft 17 kts 282°
2026-04-20 20:35 51.50500 0.04323 21 ft 17 kts 272°
2026-04-20 20:35 51.50518 0.04169 20 ft 11 kts 280°
2026-04-20 20:36 51.50523 0.04083 22 ft 1 kts 327°
2026-04-20 20:36 51.50516 0.04086 20 ft 2 kts 357°
2026-04-20 20:36 51.50503 0.04086 22 ft 2 kts 340°
2026-04-20 20:36 51.50498 0.04089 22 ft 0 kts 330°